BTK6406 WIII-WARR

Flight info

Callsign BTK6406
Flight time 1h 2m
Altitude 33000
Route CA T3 BA
Aircraft A320/M-SDE3FGHIRWY/LB1

Departure

Time 2026-05-07 06:58
Airport Soekarno-Hatta International Airport (WIII)

Arrival

Time 2026-05-07 08:00
Airport Juanda International Airport (WARR)
Time Latitude Longitude Altitude Speed Heading
2026-05-07 06:41 -6.12250 106.64916 43 ft 0 kts 150°
2026-05-07 06:50 -6.12246 106.64914 43 ft 2 kts 150°
2026-05-07 06:50 -6.12233 106.64906 43 ft 2 kts 150°
2026-05-07 06:50 -6.12220 106.64899 43 ft 2 kts 150°
2026-05-07 06:50 -6.12207 106.64891 43 ft 2 kts 151°
2026-05-07 06:51 -6.12192 106.64887 43 ft 2 kts 178°
2026-05-07 06:51 -6.12177 106.64889 43 ft 2 kts 199°
2026-05-07 06:51 -6.12164 106.64896 43 ft 2 kts 221°
2026-05-07 06:51 -6.12155 106.64907 43 ft 1 kts 242°
2026-05-07 06:52 -6.12152 106.64913 43 ft 1 kts 248°
2026-05-07 06:52 -6.12151 106.64915 43 ft 0 kts 247°
2026-05-07 06:53 -6.12152 106.64915 43 ft 0 kts 247°
2026-05-07 06:54 -6.12161 106.64893 43 ft 6 kts 247°
2026-05-07 06:54 -6.12184 106.64837 43 ft 10 kts 247°
2026-05-07 06:54 -6.12194 106.64762 43 ft 11 kts 294°
2026-05-07 06:54 -6.12126 106.64722 43 ft 11 kts 339°
2026-05-07 06:55 -6.12038 106.64687 43 ft 15 kts 336°
2026-05-07 06:55 -6.12003 106.64596 43 ft 17 kts 246°
2026-05-07 06:55 -6.12049 106.64485 43 ft 17 kts 248°
2026-05-07 06:55 -6.12091 106.64375 43 ft 17 kts 248°
2026-05-07 06:56 -6.12135 106.64266 43 ft 17 kts 248°
2026-05-07 06:56 -6.12180 106.64155 43 ft 17 kts 248°
2026-05-07 06:56 -6.12223 106.64045 42 ft 17 kts 248°
2026-05-07 06:56 -6.12244 106.63931 43 ft 16 kts 295°
2026-05-07 06:57 -6.12147 106.63895 43 ft 16 kts 19°
2026-05-07 06:57 -6.12068 106.63966 43 ft 15 kts 67°
2026-05-07 06:57 -6.12026 106.64072 43 ft 23 kts 68°
2026-05-07 06:57 -6.11881 106.64432 43 ft 89 kts 69°
2026-05-07 06:58 -6.11595 106.65154 43 ft 142 kts 68°
2026-05-07 06:58 -6.11210 106.66156 339 ft 159 kts 67°
2026-05-07 06:58 -6.10829 106.67206 878 ft 164 kts 69°
2026-05-07 06:58 -6.10383 106.68246 1502 ft 164 kts 55°
2026-05-07 06:59 -6.09652 106.69119 2011 ft 169 kts 46°
2026-05-07 06:59 -6.08786 106.70001 2301 ft 183 kts 45°
2026-05-07 06:59 -6.07843 106.70946 2601 ft 199 kts 45°
2026-05-07 06:59 -6.06837 106.71963 2903 ft 214 kts 45°
2026-05-07 07:00 -6.05863 106.73195 3086 ft 238 kts 68°
2026-05-07 07:00 -6.05721 106.74884 3464 ft 256 kts 99°
2026-05-07 07:00 -6.06192 106.76622 4005 ft 266 kts 106°
2026-05-07 07:00 -6.06754 106.78359 4704 ft 270 kts 106°
2026-05-07 07:01 -6.07315 106.80167 5441 ft 273 kts 105°
2026-05-07 07:01 -6.07840 106.81963 6165 ft 276 kts 104°
2026-05-07 07:01 -6.08355 106.83811 6912 ft 279 kts 104°
2026-05-07 07:01 -6.08860 106.85685 7676 ft 283 kts 104°
2026-05-07 07:02 -6.09360 106.87577 8447 ft 286 kts 104°
2026-05-07 07:02 -6.09868 106.89524 9233 ft 289 kts 104°
2026-05-07 07:02 -6.10372 106.91473 10005 ft 293 kts 104°
2026-05-07 07:02 -6.10874 106.93420 10559 ft 304 kts 104°
2026-05-07 07:03 -6.11418 106.95537 10921 ft 322 kts 104°
2026-05-07 07:03 -6.11992 106.97772 11263 ft 340 kts 104°
2026-05-07 07:03 -6.12598 107.00134 11580 ft 358 kts 104°
2026-05-07 07:03 -6.13235 107.02616 11893 ft 374 kts 104°
2026-05-07 07:04 -6.13893 107.05180 12451 ft 382 kts 104°
2026-05-07 07:04 -6.14555 107.07764 13189 ft 385 kts 104°
2026-05-07 07:04 -6.15218 107.10352 13892 ft 388 kts 104°
2026-05-07 07:04 -6.15894 107.12996 14565 ft 391 kts 104°
2026-05-07 07:05 -6.16569 107.15640 15223 ft 395 kts 104°
2026-05-07 07:05 -6.17256 107.18333 15872 ft 398 kts 104°
2026-05-07 07:05 -6.17939 107.21011 16494 ft 401 kts 104°
2026-05-07 07:05 -6.18633 107.23737 17106 ft 404 kts 104°
2026-05-07 07:06 -6.19333 107.26482 17702 ft 408 kts 104°
2026-05-07 07:06 -6.20035 107.29237 18242 ft 411 kts 104°
2026-05-07 07:06 -6.20752 107.32053 18741 ft 416 kts 104°
2026-05-07 07:06 -6.21470 107.34873 19264 ft 419 kts 104°
2026-05-07 07:07 -6.22182 107.37669 19785 ft 421 kts 104°
2026-05-07 07:07 -6.22917 107.40558 20306 ft 424 kts 104°
2026-05-07 07:07 -6.23644 107.43414 20810 ft 427 kts 104°
2026-05-07 07:07 -6.24377 107.46298 21304 ft 430 kts 104°
2026-05-07 07:08 -6.25129 107.49254 21807 ft 433 kts 104°
2026-05-07 07:08 -6.25876 107.52191 22280 ft 436 kts 104°
2026-05-07 07:08 -6.26622 107.55126 22737 ft 438 kts 104°
2026-05-07 07:08 -6.27370 107.58070 23183 ft 441 kts 104°
2026-05-07 07:09 -6.28130 107.61065 23620 ft 443 kts 104°
2026-05-07 07:09 -6.28896 107.64082 24042 ft 446 kts 104°
2026-05-07 07:09 -6.29661 107.67097 24446 ft 448 kts 104°
2026-05-07 07:09 -6.30435 107.70165 24841 ft 451 kts 104°
2026-05-07 07:10 -6.31203 107.73207 25218 ft 453 kts 103°
2026-05-07 07:10 -6.31983 107.76293 25580 ft 455 kts 104°
2026-05-07 07:10 -6.32766 107.79387 25929 ft 457 kts 103°
2026-05-07 07:10 -6.33547 107.82471 26246 ft 459 kts 104°
2026-05-07 07:11 -6.34339 107.85601 26551 ft 461 kts 103°
2026-05-07 07:11 -6.35125 107.88703 26857 ft 463 kts 103°
2026-05-07 07:11 -6.35920 107.91847 27261 ft 462 kts 103°
2026-05-07 07:11 -6.36710 107.94968 27693 ft 460 kts 103°
2026-05-07 07:12 -6.37493 107.98061 28107 ft 458 kts 103°
2026-05-07 07:12 -6.38278 108.01166 28509 ft 457 kts 103°
2026-05-07 07:12 -6.39056 108.04245 28900 ft 456 kts 103°
2026-05-07 07:12 -6.39832 108.07316 29286 ft 455 kts 103°
2026-05-07 07:13 -6.40610 108.10397 29674 ft 454 kts 103°
2026-05-07 07:13 -6.41393 108.13499 30058 ft 453 kts 103°
2026-05-07 07:13 -6.42156 108.16521 30427 ft 452 kts 103°
2026-05-07 07:13 -6.42931 108.19594 30795 ft 451 kts 103°
2026-05-07 07:14 -6.43702 108.22652 31144 ft 450 kts 103°
2026-05-07 07:14 -6.44466 108.25683 31429 ft 451 kts 103°
2026-05-07 07:14 -6.45238 108.28745 31676 ft 452 kts 103°
2026-05-07 07:14 -6.46006 108.31789 31912 ft 453 kts 103°
2026-05-07 07:15 -6.46773 108.34831 32140 ft 453 kts 103°
2026-05-07 07:15 -6.47557 108.37944 32367 ft 454 kts 103°
2026-05-07 07:15 -6.48328 108.41003 32582 ft 455 kts 103°
2026-05-07 07:15 -6.49101 108.44069 32758 ft 456 kts 103°
2026-05-07 07:16 -6.50620 108.50100 32784 ft 457 kts 103°
2026-05-07 07:16 -6.52172 108.56267 32789 ft 457 kts 103°
2026-05-07 07:17 -6.53737 108.62488 32790 ft 457 kts 103°
2026-05-07 07:17 -6.55272 108.68603 32790 ft 457 kts 103°
2026-05-07 07:18 -6.56822 108.74796 32790 ft 457 kts 103°
2026-05-07 07:18 -6.58370 108.80971 32790 ft 457 kts 103°
2026-05-07 07:19 -6.59925 108.87171 32790 ft 457 kts 103°
2026-05-07 07:19 -6.61477 108.93357 32790 ft 457 kts 103°
2026-05-07 07:20 -6.63030 108.99554 32790 ft 457 kts 103°
2026-05-07 07:20 -6.64571 109.05707 32790 ft 456 kts 103°
2026-05-07 07:21 -6.66124 109.11906 32790 ft 456 kts 103°
2026-05-07 07:21 -6.67671 109.18091 32790 ft 457 kts 103°
2026-05-07 07:22 -6.69224 109.24294 32790 ft 457 kts 104°
2026-05-07 07:22 -6.70772 109.30479 32790 ft 457 kts 104°
2026-05-07 07:23 -6.72316 109.36655 32790 ft 457 kts 104°
2026-05-07 07:23 -6.73860 109.42838 32790 ft 457 kts 104°
2026-05-07 07:24 -6.75414 109.49066 32790 ft 457 kts 104°
2026-05-07 07:24 -6.76954 109.55239 32790 ft 457 kts 104°
2026-05-07 07:25 -6.79267 109.64516 32790 ft 457 kts 104°
2026-05-07 07:26 -6.80805 109.70717 32790 ft 457 kts 103°
2026-05-07 07:26 -6.82335 109.76883 32790 ft 457 kts 103°
2026-05-07 07:27 -6.83868 109.83051 32790 ft 457 kts 103°
2026-05-07 07:27 -6.85413 109.89270 32790 ft 457 kts 103°
2026-05-07 07:28 -6.86954 109.95472 32790 ft 457 kts 103°
2026-05-07 07:28 -6.88484 110.01635 32790 ft 457 kts 103°
2026-05-07 07:29 -6.90014 110.07803 32790 ft 457 kts 103°
2026-05-07 07:29 -6.91550 110.14003 32790 ft 457 kts 103°
2026-05-07 07:30 -6.93084 110.20203 32790 ft 457 kts 103°
2026-05-07 07:30 -6.94605 110.26364 32790 ft 457 kts 103°
2026-05-07 07:31 -6.96128 110.32589 32789 ft 457 kts 102°
2026-05-07 07:31 -6.97208 110.38894 32789 ft 457 kts 96°
2026-05-07 07:32 -6.97625 110.45202 32788 ft 457 kts 91°
2026-05-07 07:32 -6.97736 110.51606 32790 ft 457 kts 90°
2026-05-07 07:33 -6.97825 110.57216 32790 ft 457 kts 91°
2026-05-07 07:33 -6.97915 110.62577 32790 ft 457 kts 91°
2026-05-07 07:34 -6.98105 110.73477 32790 ft 457 kts 90°
2026-05-07 07:35 -6.98229 110.80537 32737 ft 457 kts 90°
2026-05-07 07:35 -6.98299 110.84591 32409 ft 455 kts 90°
2026-05-07 07:35 -6.98353 110.87724 32161 ft 453 kts 90°
2026-05-07 07:35 -6.98407 110.90878 31796 ft 452 kts 91°
2026-05-07 07:36 -6.98462 110.94054 31207 ft 450 kts 91°
2026-05-07 07:36 -6.98515 110.97173 30488 ft 451 kts 91°
2026-05-07 07:36 -6.98569 111.00314 29696 ft 452 kts 91°
2026-05-07 07:36 -6.98623 111.03477 28854 ft 454 kts 91°
2026-05-07 07:37 -6.98678 111.06672 27969 ft 456 kts 91°
2026-05-07 07:37 -6.98732 111.09843 27071 ft 459 kts 91°
2026-05-07 07:37 -6.98786 111.13075 26162 ft 460 kts 91°
2026-05-07 07:37 -6.98839 111.16241 25608 ft 454 kts 91°
2026-05-07 07:38 -6.98891 111.19393 25056 ft 449 kts 90°
2026-05-07 07:38 -6.98943 111.22519 24497 ft 444 kts 90°
2026-05-07 07:38 -6.98993 111.25619 23936 ft 440 kts 90°
2026-05-07 07:38 -6.99042 111.28667 23377 ft 436 kts 90°
2026-05-07 07:39 -6.99091 111.31686 22821 ft 432 kts 90°
2026-05-07 07:39 -6.99140 111.34713 22260 ft 429 kts 90°
2026-05-07 07:39 -6.99191 111.37674 21708 ft 425 kts 91°
2026-05-07 07:39 -6.99390 111.40636 21145 ft 422 kts 96°
2026-05-07 07:40 -6.99833 111.43529 20594 ft 419 kts 101°
2026-05-07 07:40 -7.00510 111.46354 20036 ft 417 kts 105°
2026-05-07 07:40 -7.01296 111.49153 19476 ft 414 kts 105°
2026-05-07 07:40 -7.02102 111.51949 18910 ft 411 kts 105°
2026-05-07 07:41 -7.02886 111.54675 18355 ft 408 kts 105°
2026-05-07 07:41 -7.03670 111.57414 17796 ft 405 kts 105°
2026-05-07 07:41 -7.04446 111.60138 17238 ft 403 kts 105°
2026-05-07 07:41 -7.05214 111.62842 16687 ft 400 kts 105°
2026-05-07 07:42 -7.05964 111.65486 16146 ft 397 kts 105°
2026-05-07 07:42 -7.06716 111.68154 15603 ft 394 kts 105°
2026-05-07 07:42 -7.07468 111.70820 15055 ft 392 kts 105°
2026-05-07 07:42 -7.08201 111.73422 14522 ft 389 kts 105°
2026-05-07 07:43 -7.08944 111.76055 13981 ft 386 kts 105°
2026-05-07 07:43 -7.09672 111.78630 13449 ft 384 kts 105°
2026-05-07 07:43 -7.10389 111.81162 12924 ft 381 kts 105°
2026-05-07 07:43 -7.11123 111.83714 12550 ft 373 kts 105°
2026-05-07 07:44 -7.11828 111.86174 12410 ft 358 kts 105°
2026-05-07 07:44 -7.12483 111.88478 12275 ft 344 kts 105°
2026-05-07 07:44 -7.13099 111.90659 12158 ft 331 kts 105°
2026-05-07 07:44 -7.13714 111.92841 12051 ft 318 kts 105°
2026-05-07 07:45 -7.14306 111.94939 11964 ft 304 kts 105°
2026-05-07 07:45 -7.14872 111.96948 11893 ft 291 kts 105°
2026-05-07 07:45 -7.15416 111.98861 11832 ft 278 kts 107°
2026-05-07 07:45 -7.16049 112.00671 11698 ft 271 kts 111°
2026-05-07 07:46 -7.16776 112.02406 11374 ft 270 kts 112°
2026-05-07 07:46 -7.17523 112.04136 11074 ft 269 kts 113°
2026-05-07 07:46 -7.18271 112.05868 10781 ft 267 kts 112°
2026-05-07 07:46 -7.18994 112.07549 10499 ft 265 kts 112°
2026-05-07 07:47 -7.19720 112.09238 10218 ft 262 kts 112°
2026-05-07 07:47 -7.20449 112.10941 9935 ft 260 kts 112°
2026-05-07 07:47 -7.21158 112.12600 9660 ft 258 kts 112°
2026-05-07 07:47 -7.21869 112.14263 9385 ft 257 kts 112°
2026-05-07 07:48 -7.22569 112.15903 9112 ft 255 kts 112°
2026-05-07 07:48 -7.23269 112.17542 8839 ft 253 kts 112°
2026-05-07 07:48 -7.23951 112.19140 8573 ft 251 kts 112°
2026-05-07 07:48 -7.24644 112.20766 8302 ft 250 kts 112°
2026-05-07 07:49 -7.25327 112.22367 8034 ft 248 kts 112°
2026-05-07 07:49 -7.26000 112.23946 7771 ft 247 kts 112°
2026-05-07 07:49 -7.26671 112.25520 7507 ft 245 kts 112°
2026-05-07 07:49 -7.27349 112.27108 7243 ft 244 kts 112°
2026-05-07 07:50 -7.28014 112.28664 6981 ft 243 kts 112°
2026-05-07 07:50 -7.28673 112.30208 6722 ft 241 kts 112°
2026-05-07 07:50 -7.29316 112.31751 6463 ft 240 kts 109°
2026-05-07 07:50 -7.29830 112.33349 6205 ft 239 kts 103°
2026-05-07 07:51 -7.30189 112.34964 5953 ft 237 kts 101°
2026-05-07 07:51 -7.30513 112.36601 5698 ft 236 kts 100°
2026-05-07 07:51 -7.30832 112.38221 5446 ft 235 kts 100°
2026-05-07 07:51 -7.31152 112.39841 5195 ft 234 kts 101°
2026-05-07 07:52 -7.31466 112.41422 4949 ft 233 kts 100°
2026-05-07 07:52 -7.31788 112.43021 4709 ft 231 kts 100°
2026-05-07 07:52 -7.32105 112.44603 4456 ft 230 kts 100°
2026-05-07 07:52 -7.32465 112.46172 4201 ft 229 kts 103°
2026-05-07 07:53 -7.32844 112.47715 3949 ft 227 kts 102°
2026-05-07 07:53 -7.33168 112.49194 3710 ft 225 kts 100°
2026-05-07 07:53 -7.33467 112.50733 3498 ft 221 kts 99°
2026-05-07 07:53 -7.33732 112.52226 3466 ft 212 kts 98°
2026-05-07 07:54 -7.33969 112.53652 3485 ft 199 kts 98°
2026-05-07 07:54 -7.34182 112.54973 3464 ft 191 kts 98°
2026-05-07 07:54 -7.34385 112.56258 3185 ft 180 kts 98°
2026-05-07 07:54 -7.34571 112.57437 2967 ft 163 kts 97°
2026-05-07 07:55 -7.34743 112.58528 2705 ft 150 kts 97°
2026-05-07 07:55 -7.34897 112.59503 2657 ft 135 kts 97°
2026-05-07 07:55 -7.35043 112.60435 2678 ft 135 kts 97°
2026-05-07 07:55 -7.35190 112.61370 2703 ft 135 kts 97°
2026-05-07 07:56 -7.35338 112.62302 2676 ft 135 kts 97°
2026-05-07 07:56 -7.35488 112.63247 2662 ft 135 kts 97°
2026-05-07 07:56 -7.35639 112.64188 2563 ft 136 kts 97°
2026-05-07 07:56 -7.35789 112.65121 2383 ft 134 kts 97°
2026-05-07 07:57 -7.35936 112.66043 2210 ft 134 kts 97°
2026-05-07 07:57 -7.36082 112.66957 2038 ft 133 kts 97°
2026-05-07 07:57 -7.36232 112.67886 1863 ft 133 kts 98°
2026-05-07 07:57 -7.36378 112.68787 1691 ft 132 kts 98°
2026-05-07 07:58 -7.36525 112.69694 1516 ft 132 kts 98°
2026-05-07 07:58 -7.36674 112.70613 1339 ft 131 kts 98°
2026-05-07 07:58 -7.36821 112.71517 1164 ft 131 kts 98°
2026-05-07 07:58 -7.36968 112.72427 988 ft 130 kts 98°
2026-05-07 07:59 -7.37114 112.73327 814 ft 130 kts 98°
2026-05-07 07:59 -7.37261 112.74229 641 ft 130 kts 98°
2026-05-07 07:59 -7.37406 112.75126 471 ft 129 kts 98°
2026-05-07 07:59 -7.37550 112.76016 303 ft 129 kts 98°
2026-05-07 08:00 -7.37693 112.76901 129 ft 128 kts 98°
2026-05-07 08:00 -7.37842 112.77776 13 ft 119 kts 98°
2026-05-07 08:00 -7.37942 112.78433 12 ft 70 kts 98°
2026-05-07 08:00 -7.37997 112.78762 12 ft 34 kts 99°
2026-05-07 08:01 -7.38032 112.78988 9 ft 30 kts 97°
2026-05-07 08:01 -7.38044 112.79176 9 ft 25 kts 84°
2026-05-07 08:01 -7.38011 112.79323 10 ft 14 kts 73°
2026-05-07 08:01 -7.37968 112.79401 10 ft 12 kts 29°
2026-05-07 08:02 -7.37883 112.79419 10 ft 12 kts 10°
2026-05-07 08:02 -7.37800 112.79432 12 ft 11 kts
2026-05-07 08:02 -7.37731 112.79442 14 ft 10 kts 11°
2026-05-07 08:02 -7.37665 112.79456 16 ft 9 kts 12°
2026-05-07 08:03 -7.37608 112.79464 17 ft 7 kts
2026-05-07 08:03 -7.37590 112.79467 17 ft 0 kts